TimeCST,TemperatureF,Dew PointF,Humidity,Sea Level PressureIn,VisibilityMPH,Wind Direction,Wind SpeedMPH,Gust SpeedMPH,PrecipitationIn,Events,Conditions,WindDirDegrees,DateUTC
12:25 AM,69.8,66.2,88,30.05,2.0,Calm,Calm,-,N/A,,Partly Cloudy,0,2012-11-05 06:25:00
12:28 AM,69.8,66.2,88,30.05,1.0,WSW,3.5,-,N/A,,Mist,250,2012-11-05 06:28:00
12:35 AM,71.6,68.0,88,30.05,0.5,WSW,3.5,-,N/A,Fog,Fog,240,2012-11-05 06:35:00
12:40 AM,71.6,68.0,88,30.05,1.2,Calm,Calm,-,N/A,,Partly Cloudy,0,2012-11-05 06:40:00
12:49 AM,71.6,68.0,88,30.05,2.0,WSW,3.5,-,N/A,,Partly Cloudy,250,2012-11-05 06:49:00
12:53 AM,69.1,68.0,96,30.05,0.8,Calm,Calm,-,N/A,,Mist,0,2012-11-05 06:53:00
1:03 AM,66.2,64.4,94,30.05,0.2,Calm,Calm,-,N/A,Fog,Fog,0,2012-11-05 07:03:00
1:53 AM,64.9,63.0,93,30.04,0.2,Calm,Calm,-,N/A,Fog,Fog,0,2012-11-05 07:53:00
2:53 AM,63.0,62.1,97,30.04,0.2,Calm,Calm,-,N/A,Fog,Fog,0,2012-11-05 08:53:00
3:53 AM,64.0,62.1,93,30.03,0.2,NE,3.5,-,N/A,Fog,Fog,40,2012-11-05 09:53:00
4:45 AM,62.6,62.6,100,30.03,1.0,NE,3.5,-,0.01,,Overcast,50,2012-11-05 10:45:00
4:53 AM,64.0,62.1,93,30.03,0.2,Calm,Calm,-,0.01,Fog,Fog,0,2012-11-05 10:53:00
5:21 AM,62.6,62.6,100,30.04,1.2,North,3.5,-,N/A,,Scattered Clouds,360,2012-11-05 11:21:00
5:28 AM,62.6,60.8,94,30.04,3.0,Calm,Calm,-,N/A,,Partly Cloudy,0,2012-11-05 11:28:00
5:46 AM,62.6,60.8,94,30.04,1.8,Calm,Calm,-,N/A,,Scattered Clouds,0,2012-11-05 11:46:00
5:51 AM,62.6,60.8,94,30.04,0.8,Calm,Calm,-,N/A,,Mist,0,2012-11-05 11:51:00
5:53 AM,62.1,60.1,93,30.04,0.8,Calm,Calm,-,N/A,,Mist,0,2012-11-05 11:53:00
6:01 AM,62.6,60.8,94,30.04,2.0,Calm,Calm,-,N/A,,Mostly Cloudy,0,2012-11-05 12:01:00
6:12 AM,62.6,60.8,94,30.04,0.8,Calm,Calm,-,N/A,,Mist,0,2012-11-05 12:12:00
6:49 AM,62.6,60.8,94,30.05,2.5,Calm,Calm,-,N/A,,Overcast,0,2012-11-05 12:49:00
6:50 AM,62.6,60.8,94,30.05,3.0,Calm,Calm,-,N/A,,Overcast,0,2012-11-05 12:50:00
6:53 AM,63.0,61.0,93,30.05,7.0,Calm,Calm,-,N/A,,Overcast,0,2012-11-05 12:53:00
7:02 AM,62.6,60.8,94,30.05,0.8,Calm,Calm,-,N/A,,Mist,0,2012-11-05 13:02:00
7:17 AM,62.6,60.8,94,30.05,2.5,Calm,Calm,-,N/A,,Mostly Cloudy,0,2012-11-05 13:17:00
7:24 AM,62.6,60.8,94,30.06,8.0,Calm,Calm,-,N/A,,Mostly Cloudy,0,2012-11-05 13:24:00
7:53 AM,66.0,64.0,93,30.06,8.0,Calm,Calm,-,N/A,,Scattered Clouds,0,2012-11-05 13:53:00
8:36 AM,71.6,68.0,88,30.07,9.0,Calm,Calm,-,N/A,,Mostly Cloudy,0,2012-11-05 14:36:00
8:53 AM,72.0,68.0,87,30.08,10.0,NNW,4.6,-,N/A,,Overcast,340,2012-11-05 14:53:00
9:53 AM,75.9,69.1,79,30.08,10.0,West,3.5,-,N/A,,Mostly Cloudy,270,2012-11-05 15:53:00
10:02 AM,75.2,68.0,78,30.08,10.0,WNW,4.6,-,N/A,,Scattered Clouds,300,2012-11-05 16:02:00
10:53 AM,79.0,69.1,72,30.07,10.0,Variable,4.6,-,N/A,,Partly Cloudy,0,2012-11-05 16:53:00
11:53 AM,82.0,66.9,60,30.04,10.0,WSW,4.6,-,N/A,,Partly Cloudy,240,2012-11-05 17:53:00
12:53 PM,82.0,71.1,69,30.00,10.0,South,9.2,-,N/A,,Clear,190,2012-11-05 18:53:00
1:53 PM,81.0,70.0,69,29.97,10.0,South,11.5,-,N/A,,Clear,190,2012-11-05 19:53:00
2:53 PM,81.0,70.0,69,29.96,10.0,South,11.5,-,N/A,,Clear,190,2012-11-05 20:53:00
3:53 PM,80.1,70.0,71,29.95,10.0,South,10.4,-,N/A,,Clear,180,2012-11-05 21:53:00
4:53 PM,79.0,70.0,74,29.95,10.0,South,11.5,-,N/A,,Clear,190,2012-11-05 22:53:00
5:53 PM,77.0,71.1,82,29.95,10.0,SSW,9.2,-,N/A,,Clear,200,2012-11-05 23:53:00
6:53 PM,77.0,71.1,82,29.96,10.0,SSW,9.2,-,N/A,,Clear,210,2012-11-06 00:53:00
7:53 PM,75.9,71.1,85,29.98,10.0,North,-9999.0,-,N/A,,Unknown,0,2012-11-06 01:53:00
8:53 PM,75.9,71.1,85,29.97,10.0,SW,9.2,-,N/A,,Clear,220,2012-11-06 02:53:00
9:17 PM,75.2,71.6,89,29.97,10.0,North,-9999.0,-,N/A,,Scattered Clouds,0,2012-11-06 03:17:00
9:53 PM,75.0,71.1,87,30.00,10.0,NNW,11.5,-,N/A,,Overcast,330,2012-11-06 03:53:00
9:56 PM,75.2,71.6,89,30.01,10.0,NNW,13.8,-,0.00,Rain-Thunderstorm,Light Rain,340,2012-11-06 03:56:00
10:11 PM,73.4,69.8,88,30.03,6.0,NNW,20.7,25.3,0.02,Rain-Thunderstorm,Rain,330,2012-11-06 04:11:00
10:21 PM,73.4,69.8,88,30.02,6.0,NW,12.7,-,0.04,Rain-Thunderstorm,Light Rain,320,2012-11-06 04:21:00
10:29 PM,73.4,69.8,88,30.02,10.0,NW,16.1,-,0.04,Rain,Light Rain,320,2012-11-06 04:29:00
10:53 PM,72.0,66.9,84,30.02,10.0,NNW,11.5,27.6,0.05,,Scattered Clouds,340,2012-11-06 04:53:00
11:53 PM,70.0,64.0,81,30.02,10.0,North,-9999.0,-,N/A,,Mostly Cloudy,0,2012-11-06 05:53:00